Location: Bacea
(45.9500°N, 22.6667°E)
Time: 22:19:37
(UTC+00:00)

Cosmos 1953 - Pass Details

Date: 06 June 2022
Orbit: 533 x 555 km, 82.5° (Epoch: 01 July)

Event Time Altitude Azimuth Distance (km) Brightness Sun altitude
Rises 22:32:57 0° 337° (NNW) 2,708 7.0 -21.3°
Reaches altitude 10° 22:35:31 10° 320° (NW) 1,806 5.6 -21.3°
Maximum altitude 22:38:27 20° 272° (W) 1,273 4.1 -21.3°
Enters shadow 22:38:51 20° 264° (W) 1,284 4.1 -21.3°
